EN

Hourly Weather Dzhurzhivka

Today, 30 November, Monday

Time Temperature Precipitation Wind Pressure Humidity
00:00 -1°C° 0 mm 1 mps 745 mmHg 91%
01:00 -2°C° 0 mm 0 mps 745 mmHg 92%
02:00 -2°C° 0 mm 0 mps 746 mmHg 93%
03:00 -2°C° 0 mm 0 mps 746 mmHg 93%
04:00 -2°C° 0 mm 0 mps 746 mmHg 93%
05:00 -2°C° 0 mm 0 mps 746 mmHg 93%
06:00 -2°C° 0 mm 0 mps 746 mmHg 93%
07:00 -2°C° 0 mm 0 mps 747 mmHg 93%
08:00 -2°C° 0 mm 0 mps 747 mmHg 93%
09:00 -1°C° 0 mm 0 mps 747 mmHg 88%
10:00 0°C° 0 mm 0 mps 748 mmHg 83%
11:00 +2°C° 0 mm 1 mps 748 mmHg 78%
12:00 +2°C° 0 mm 1 mps 748 mmHg 76%
13:00 +1°C° 0 mm 2 mps 748 mmHg 73%
14:00 +1°C° 0 mm 2 mps 748 mmHg 71%
15:00 +1°C° 0 mm 2 mps 748 mmHg 74%
16:00 -1°C° 0 mm 2 mps 748 mmHg 77%
17:00 0°C° 0 mm 1 mps 748 mmHg 79%
18:00 0°C° 0 mm 1 mps 748 mmHg 81%
19:00 -1°C° 0 mm 1 mps 748 mmHg 82%
20:00 -1°C° 0 mm 1 mps 748 mmHg 84%
21:00 -1°C° 0 mm 1 mps 748 mmHg 84%
22:00 -2°C° 0 mm 1 mps 748 mmHg 84%
23:00 -2°C° 0 mm 1 mps 749 mmHg 83%

Tomorrow, 1 December, Tuesday

Time Temperature Precipitation Wind Pressure Humidity
00:00 -2°C° 0 mm 1 mps 748 mmHg 83%
01:00 -2°C° 0 mm 1 mps 748 mmHg 83%
02:00 -2°C° 0 mm 1 mps 748 mmHg 82%
03:00 -2°C° 0 mm 1 mps 748 mmHg 83%
04:00 -2°C° 0 mm 1 mps 748 mmHg 84%
05:00 -2°C° 0 mm 1 mps 748 mmHg 85%
06:00 -2°C° 0 mm 1 mps 748 mmHg 86%
07:00 -3°C° 0 mm 1 mps 748 mmHg 88%
08:00 -5°C° 0 mm 2 mps 748 mmHg 89%
09:00 -4°C° 0 mm 2 mps 748 mmHg 83%
10:00 -3°C° 0 mm 2 mps 748 mmHg 76%
11:00 -1°C° 0 mm 2 mps 748 mmHg 70%
12:00 -1°C° 0 mm 2 mps 748 mmHg 67%
13:00 +1°C° 0 mm 2 mps 748 mmHg 64%
14:00 0°C° 0 mm 3 mps 748 mmHg 61%
15:00 -1°C° 0 mm 3 mps 748 mmHg 66%
16:00 -2°C° 0 mm 2 mps 747 mmHg 71%
17:00 -3°C° 0 mm 2 mps 747 mmHg 76%
18:00 -4°C° 0 mm 3 mps 747 mmHg 79%
19:00 -4°C° 0 mm 3 mps 748 mmHg 81%
20:00 -4°C° 0 mm 3 mps 748 mmHg 84%
21:00 -3°C° 0 mm 2 mps 748 mmHg 87%
22:00 -3°C° 0 mm 2 mps 748 mmHg 90%
23:00 -3°C° 0 mm 2 mps 748 mmHg 93%

Day after tomorrow, 2 December, Wednesday

Time Temperature Precipitation Wind Pressure Humidity
00:00 -3°C° 0.1 mm 2 mps 748 mmHg 94%
01:00 -3°C° 0.1 mm 2 mps 748 mmHg 94%
02:00 -2°C° 0.1 mm 2 mps 748 mmHg 95%
03:00 -2°C° 0.1 mm 2 mps 747 mmHg 96%
04:00 -2°C° 0.1 mm 2 mps 747 mmHg 96%
05:00 -2°C° 0.1 mm 2 mps 747 mmHg 96%
06:00 -2°C° 0.1 mm 2 mps 747 mmHg 97%
07:00 -2°C° 0.1 mm 2 mps 747 mmHg 97%
08:00 -2°C° 0.1 mm 2 mps 747 mmHg 97%
09:00 -1°C° 0 mm 2 mps 747 mmHg 94%
10:00 -1°C° 0 mm 2 mps 747 mmHg 91%
11:00 +1°C° 0 mm 2 mps 747 mmHg 88%
12:00 +1°C° 0 mm 2 mps 746 mmHg 87%
13:00 +1°C° 0 mm 2 mps 746 mmHg 87%
14:00 +2°C° 0 mm 1 mps 746 mmHg 86%
15:00 +2°C° 0 mm 1 mps 746 mmHg 89%
16:00 -1°C° 0 mm 2 mps 745 mmHg 92%
17:00 -1°C° 0 mm 2 mps 745 mmHg 95%
18:00 -1°C° 0 mm 2 mps 745 mmHg 95%
19:00 -1°C° 0 mm 2 mps 745 mmHg 94%
20:00 -1°C° 0 mm 2 mps 746 mmHg 94%
21:00 -1°C° 0 mm 2 mps 745 mmHg 94%
22:00 -2°C° 0 mm 2 mps 745 mmHg 94%
23:00 -2°C° 0 mm 2 mps 745 mmHg 94%

3 December, Thursday

Time Temperature Precipitation Wind Pressure Humidity
00:00 -2°C° 0 mm 2 mps 745 mmHg 95%
01:00 -2°C° 0 mm 2 mps 745 mmHg 95%
02:00 -3°C° 0 mm 2 mps 745 mmHg 96%
03:00 -2°C° 0 mm 2 mps 745 mmHg 94%
04:00 -2°C° 0 mm 3 mps 744 mmHg 93%
05:00 -2°C° 0 mm 3 mps 744 mmHg 91%
06:00 -2°C° 0 mm 3 mps 744 mmHg 91%
07:00 -2°C° 0 mm 3 mps 744 mmHg 90%
08:00 -3°C° 0 mm 4 mps 744 mmHg 89%
09:00 -3°C° 0 mm 4 mps 744 mmHg 87%
10:00 -2°C° 0 mm 5 mps 744 mmHg 85%
11:00 -2°C° 0 mm 5 mps 744 mmHg 83%
12:00 -2°C° 0 mm 5 mps 743 mmHg 82%
13:00 -2°C° 0 mm 5 mps 743 mmHg 80%
14:00 -1°C° 0 mm 5 mps 743 mmHg 79%
15:00 -2°C° 0 mm 5 mps 743 mmHg 79%
16:00 -2°C° 0 mm 5 mps 743 mmHg 80%
17:00 -2°C° 0 mm 5 mps 742 mmHg 81%
18:00 -2°C° 0 mm 5 mps 742 mmHg 81%
19:00 -2°C° 0 mm 5 mps 742 mmHg 81%
20:00 -2°C° 0 mm 5 mps 742 mmHg 81%
21:00 -2°C° 0 mm 5 mps 742 mmHg 84%
22:00 -2°C° 0 mm 5 mps 742 mmHg 86%
23:00 -1°C° 0 mm 5 mps 742 mmHg 89%

4 December, Friday

Time Temperature Precipitation Wind Pressure Humidity
00:00 -1°C° 0 mm 5 mps 741 mmHg 90%
01:00 -1°C° 0 mm 6 mps 741 mmHg 91%
02:00 -1°C° 0 mm 6 mps 741 mmHg 93%
03:00 +1°C° 0 mm 6 mps 740 mmHg 93%
04:00 +2°C° 0 mm 7 mps 740 mmHg 93%
05:00 +2°C° 0 mm 7 mps 739 mmHg 93%
06:00 +2°C° 0 mm 8 mps 739 mmHg 92%
07:00 +2°C° 0 mm 8 mps 739 mmHg 91%
08:00 +2°C° 0 mm 9 mps 739 mmHg 90%
09:00 +2°C° 0 mm 9 mps 739 mmHg 87%
10:00 +2°C° 0 mm 10 mps 739 mmHg 85%
11:00 +3°C° 0 mm 10 mps 739 mmHg 82%
12:00 +3°C° 0 mm 10 mps 738 mmHg 81%
13:00 +3°C° 0 mm 10 mps 738 mmHg 80%
14:00 +3°C° 0 mm 10 mps 738 mmHg 79%
15:00 +3°C° 0 mm 10 mps 738 mmHg 81%
16:00 +3°C° 0 mm 9 mps 738 mmHg 84%
17:00 +3°C° 0 mm 9 mps 737 mmHg 86%
18:00 +3°C° 0 mm 9 mps 738 mmHg 87%
19:00 +4°C° 0 mm 8 mps 738 mmHg 87%
20:00 +4°C° 0 mm 8 mps 738 mmHg 88%
21:00 +2°C° 0 mm 9 mps 738 mmHg 89%
22:00 +2°C° 0 mm 9 mps 738 mmHg 89%
23:00 +2°C° 0 mm 9 mps 738 mmHg 90%

5 December, Saturday

Time Temperature Precipitation Wind Pressure Humidity
00:00 +2°C° 0 mm 8 mps 738 mmHg 90%
01:00 +4°C° 0 mm 8 mps 738 mmHg 91%
02:00 +4°C° 0 mm 7 mps 738 mmHg 91%
03:00 +4°C° 0.2 mm 7 mps 738 mmHg 92%
04:00 +4°C° 0.2 mm 7 mps 738 mmHg 93%
05:00 +4°C° 0.2 mm 6 mps 738 mmHg 95%
06:00 +5°C° 0.3 mm 7 mps 738 mmHg 95%
07:00 +5°C° 0.3 mm 7 mps 738 mmHg 94%
08:00 +5°C° 0.3 mm 7 mps 738 mmHg 94%
09:00 +5°C° 0.1 mm 7 mps 738 mmHg 93%
10:00 +6°C° 0.1 mm 7 mps 738 mmHg 92%
11:00 +6°C° 0.1 mm 8 mps 738 mmHg 91%
12:00 +6°C° 0 mm 8 mps 738 mmHg 90%
13:00 +7°C° 0 mm 8 mps 738 mmHg 90%
14:00 +7°C° 0 mm 8 mps 738 mmHg 89%
15:00 +7°C° 0 mm 8 mps 738 mmHg 89%
16:00 +7°C° 0 mm 9 mps 738 mmHg 89%
17:00 +6°C° 0 mm 9 mps 738 mmHg 88%
18:00 +7°C° 0 mm 10 mps 738 mmHg 88%
19:00 +7°C° 0 mm 10 mps 738 mmHg 87%
20:00 +7°C° 0 mm 10 mps 738 mmHg 86%
21:00 +7°C° 0 mm 10 mps 738 mmHg 86%
22:00 +6°C° 0 mm 10 mps 738 mmHg 87%
23:00 +6°C° 0 mm 10 mps 738 mmHg 87%
Show more